Forum


Ask a question

No. FLOSS Question Date
Views
Answers
1 DWSIM Reaction manager in Mac os 2020-01-18 06:17:01.979261 8 2
2 DWSIM Error while opening "Open Python Script Editor" 2019-12-06 10:59:07.175921 84 1
3 DWSIM Automation of compound separator 2019-12-04 16:45:48.004921 62 0
4 DWSIM Using a custom compound 2019-10-10 13:51:25.781544 156 2
5 DWSIM CAPE-OPEN Unit Operations 2019-09-17 14:27:21.315684 175 6
6 DWSIM How to add a Component Splitter 2019-09-17 14:20:25.989936 151 1
7 DWSIM chemicals and thermodynamic 2019-07-28 18:10:08.125386 185 1
8 DWSIM .ERROR IN POWER CALC OF PUMP 2019-07-09 13:34:58.961977 140 1
9 DWSIM Not responding error 2019-06-29 10:33:49.500974 181 4
10 DWSIM Error while accessing compounds 2019-06-26 17:38:39.404765 185 1
11 DWSIM R.O desalination 2019-05-17 15:32:40.033347 258 1
12 DWSIM Custom modeler 2019-05-17 15:03:35.785255 233 1
13 DWSIM classic extractive distillation with 2 simple columns,  with water, ethanol and benzene 2019-04-28 20:10:56.613384 246 1
14 DWSIM Not able to download the codes for Textbook Companion Project 2019-04-24 04:06:12.674019 240 1
15 DWSIM Reaction manager 2019-03-26 16:30:04.686962 371 1
16 DWSIM equillibrium reactor 2019-03-12 18:01:08.763284 377 2
17 DWSIM Issues related to DWSIM in mac 2019-01-08 15:36:26.443308 429 2
18 DWSIM upload user define compound 2018-12-23 06:48:53.388854 351 1
19 DWSIM DWSIM Wastewater treatment process 2018-12-19 20:43:41.379014 439 1
20 DWSIM Problem with "Valve" 2018-12-05 08:35:47.995121 418 3
21 DWSIM find the enthalpy in python script 2018-12-04 04:49:54.852579 386 1
22 DWSIM Rigourous Distillation column error with image file 2018-11-21 12:52:40.637300 486 1
23 DWSIM error in a kinetic reaction 2018-11-01 11:40:17.000000 431 1
24 DWSIM error in LLE ternary graph utility 2018-10-08 15:22:17.000000 490 2
25 DWSIM doubt regarding reaction furnace and condenser 2018-09-15 14:15:00.000000 434 1
26 DWSIM Error in stichiometry 2018-08-24 09:17:41.000000 454 3
27 DWSIM Simulation of process model for n number of data points or observations 2018-08-24 08:51:16.000000 406 1
28 DWSIM Development of graphical user interface in Excel 2018-08-24 08:45:45.000000 418 1
29 DWSIM about flowsheet submission 2018-07-29 12:56:35.000000 589 1
30 DWSIM about a scrubber design 2018-07-22 15:53:53.000000 567 1
31 DWSIM Pipe unit operation 2018-07-14 14:42:47.000000 475 1
32 DWSIM About internship's forms 2018-07-05 10:00:45.000000 461 1
33 DWSIM Simulating a condensor 2018-06-24 04:42:34.000000 521 1
34 DWSIM Python Documentation For DWSIM 2018-06-21 06:57:47.000000 656 1
35 DWSIM Bubble Column Reactor Substitute 2018-06-20 05:45:42.000000 499 1
36 DWSIM Compound not available 2018-06-01 17:08:01.000000 471 1
37 DWSIM help about vinyl chloride 2018-05-28 18:01:35.000000 412 1
38 DWSIM Crude Desalter Simulator 2018-05-27 06:17:30.000000 491 1
39 DWSIM separator column in compound separater 2018-05-26 18:24:56.000000 406 1
40 DWSIM fixing the output data for a given problem 2018-05-26 17:18:25.000000 394 1
41 DWSIM Conversion reactor 2018-05-21 20:31:08.000000 485 4
42 DWSIM UNIQUAC package with default flash doesnot converge. 2018-05-17 18:37:34.000000 487 3
43 DWSIM Brine evaporation in DWSIM 2018-04-21 04:54:02.000000 503 1
44 DWSIM Regarding adding compuonds in DWSIM 2018-04-04 11:45:22.000000 830 1
45 DWSIM About unit operations in DWSIM 2018-04-03 12:00:22.000000 554 1
46 DWSIM CATALYST is not present 2018-03-21 18:44:11.000000 556 2
47 DWSIM Dehydration Plant Simulation 2018-02-27 14:03:49.000000 458 2
48 DWSIM Dehydration Plant 2018-02-19 15:29:52.000000 542 1
49 DWSIM Proble with opening DWSIM file into software 2018-02-02 07:11:26.000000 636 1
50 DWSIM Kinetic reaction 2018-01-21 05:17:44.000000 533 1
51 DWSIM Rigorous Distillation 2018-01-12 06:01:32.000000 687 1
52 DWSIM PFR step size error 2018-01-11 10:26:39.000000 520 1
53 DWSIM Displaying reaction results 2017-12-31 08:31:37.000000 499 1
54 DWSIM can you suggest me the solution for the error I'm getting while designing methanol synthesis process ? 2017-12-22 12:22:28.000000 569 1
55 DWSIM DWSIM for membrane separation 2017-10-30 17:26:45.000000 857 1
56 DWSIM Downloading the Tutorials 2017-10-03 13:49:40.000000 631 1
57 DWSIM Issue in DWSIM Software Installation 2017-10-02 05:45:54.000000 724 1
58 DWSIM Three phase open-source library 2017-09-13 14:22:55.000000 612 1
59 DWSIM Three phase library open-source 2017-09-13 14:22:23.000000 622 1
60 DWSIM can we use DWSIM for simulutions for a spray or rotay drier systems 2017-09-07 08:36:51.000000 718 1
61 DWSIM internship details 2017-08-14 14:13:59.000000 583 1
62 DWSIM Regarding Submission of flow sheet and its deadline. 2017-08-07 15:00:09.000000 615 1
63 DWSIM Assigning operating pressure for distillation column 2017-07-26 18:58:47.000000 721 1
64 DWSIM step size becomes too small error in plug flow reactor 2017-05-14 05:44:09.000000 784 1
65 DWSIM double clicking not opening main editing window 2017-05-12 02:47:51.000000 621 1
66 DWSIM Multi component Distillation 2017-04-25 12:11:09.000000 1026 1
67 DWSIM Unbalanced equation 2017-03-19 14:23:10.000000 709 2
68 DWSIM DWSIM components 2017-03-08 14:13:14.000000 882 2
69 DWSIM RECYCLE STREAM 2017-01-10 04:40:53.000000 1312 1
70 DWSIM SIMULATION inquiry 2016-12-29 06:53:02.000000 745 2
71 DWSIM HEAT EXCHANGER 2016-12-04 05:57:37.000000 991 1
72 DWSIM OPEN SOURCE APPLICATION 2016-12-03 04:08:30.000000 767 5
73 DWSIM FLASH DRUM SEPARATOR 2016-12-03 02:40:31.000000 875 1
74 DWSIM New Compound Creator Study 2016-05-26 11:56:10.000000 1950 1
75 DWSIM How to install and run DWSIM on MAC AIR? 2016-04-25 10:40:30.000000 1279 2
76 DWSIM Creating component hypothetically 2016-04-22 09:22:23.000000 3115 2
77 DWSIM Equilibrium reactor simulation 2016-02-26 15:40:26.000000 3929 2
78 DWSIM Textbook companion project 2016-02-10 13:38:57.000000 1073 2
79 DWSIM Conversion of Reaction 2016-01-04 14:31:49.000000 1426 1
80 DWSIM Unavailability of compounds in Database 2015-12-24 14:14:49.000000 1745 2
81 DWSIM TEXTBOOK COMPANION INTERNSHIP 2015-12-23 17:35:03.000000 1045 1
82 DWSIM Transient simulations and Stream wise report 2015-10-21 07:04:10.000000 1377 1